Location: Powder Track
(41.8531°N, 72.3584°W)
Time: 17:49:17
(UTC+00:00)

Transit 4A - Pass Details

Date: 04 August 2021
Orbit: 871 x 974 km, 66.8° (Epoch: 19 September)

Event Time Altitude Azimuth Distance (km) Brightness Sun altitude
Rises 05:54:49 0° 263° (W) 3,478 - -29.4°
Reaches altitude 10° 05:58:21 10° 284° (WNW) 2,531 - -29.2°
Exits shadow 05:58:24 10° 285° (WNW) 2,522 10.1 -29.2°
Maximum altitude 06:01:54 16° 322° (NW) 2,113 10.1 -29.0°
Drops below altitude 10° 06:05:27 10° 360° (N) 2,526 11.0 -28.8°
Sets 06:08:59 0° 21° (NNE) 3,468 12.1 -28.6°
